Вернуться в каталог

STARLINK-33794

АктивенСвязьVLEO
NORAD 63820·PAYLOAD·🇺🇸 United States

Запущен May 4, 2025 с Cape Canaveral Space Force Station

Loading…

Ближайшие Пролёты (ближайшие 24 часа)

TLE

СвежийSource: CelesTrak SupGP

Эпоха: Sep 14, 2026, 20:50 UTC

1 63820C 25092S   26257.86854167  .00005888  00000+0  21327-3 0  2577
2 63820  43.0027 184.3510 0001476 273.7719 132.8605 15.27574275    14

Отслеживайте STARLINK-33794 в реальном времени с AllMySat

Download on the App Store